This demonstration page uses our WeatherBlox Daily Observations layout. Learn more.

Left ArrowRight Arrow

39.08367, -84.50855

Hourly Observations for May 22, 2017

Temp ( °F °C ) Dew Point ( °F °C ) Humidity (%) Winds ( mph kmh ) Pressure ( in mb ) Visibility ( mi km ) Precip ( " mm )
12:53 am 00:53 Clear 65 18.3 54 12.2 68 68 NW 6 9 30.04 1017 10 16.0934 N/A
1:53 am 01:53 Clear 62 16.7 54 12.2 75 75 NW 7 11 30.06 1018 10 16.0934 N/A
2:53 am 02:53 Clear 60 15.6 52 11.1 75 75 W 7 11 30.07 1018 10 16.0934 N/A
3:53 am 03:53 Clear 58 14.4 49 9.4 72 72 NW 7 11 30.09 1019 10 16.0934 N/A
4:53 am 04:53 Clear 56 13.3 44 6.7 65 65 WNW 7 11 30.11 1020 10 16.0934 N/A
5:53 am 05:53 Clear 54 12.2 44 6.7 69 69 NW 6 9 30.11 1020 10 16.0934 N/A
6:53 am 06:53 Sunny 51 10.6 46 7.8 83 83 N N/A 30.12 1020 10 16.0934 N/A
7:53 am 07:53 Sunny 54 12.2 49 9.4 83 83 N N/A 30.14 1021 10 16.0934 N/A
8:53 am 08:53 Sunny 58 14.4 45 7.2 62 62 W 6 9 30.16 1021 10 16.0934 N/A
9:53 am 09:53 Sunny 61 16.1 44 6.7 54 54 W 9 15 30.16 1022 10 16.0934 N/A
10:53 am 10:53 Sunny 62 16.7 44 6.7 52 52 WNW 8 13 30.15 1021 10 16.0934 N/A
11:53 am 11:53 Sunny 64 17.8 46 7.8 52 52 VRB 6 9 30.14 1021 10 16.0934 N/A
12:53 pm 12:53 Sunny 66 18.9 45 7.2 47 47 NW 8 13 30.12 1020 10 16.0934 N/A
1:53 pm 13:53 Sunny 66 18.9 44 6.7 45 45 NNE 3 6 30.12 1020 10 16.0934 N/A
2:53 pm 14:53 Sunny 66 18.9 47 8.3 50 50 N N/A 30.1 1019 10 16.0934 N/A
3:53 pm 15:53 Sunny 67 19.4 46 7.8 47 47 N N/A 30.07 1018 10 16.0934 N/A
4:53 pm 16:53 Sunny 68 20 48 8.9 49 49 N N/A 30.05 1018 10 16.0934 N/A
5:53 pm 17:53 Sunny 69 20.6 46 7.8 44 44 N N/A 30.04 1017 10 16.0934 N/A
6:53 pm 18:53 Sunny 70 21.1 47 8.3 44 44 N N/A 30.03 1017 10 16.0934 N/A
7:53 pm 19:53 Sunny 65 18.3 50 10 59 59 N N/A 30.03 1017 10 16.0934 N/A
8:53 pm 20:53 Clear 60 15.6 53 11.7 78 78 N N/A 30.02 1017 10 16.0934 N/A
9:53 pm 21:53 Clear 56 13.3 52 11.1 87 87 N N/A 30.02 1017 10 16.0934 N/A
10:53 pm 22:53 Clear 55 12.8 52 11.1 90 90 N N/A 30.03 1017 10 16.0934 N/A
11:53 pm 23:53 Clear 54 12.2 52 11.1 93 93 N N/A 30.01 1016 10 16.0934 N/A

Powered by AerisWeather